TianYi 6 (43158 NORAD) Tracking and Keplerian Element Data

This shows tracking and keplerian element data for the satellite.

Feedback or suggestion? Click here.




ElementValue
Catalog43158
NameTianYi 6
Epoch Orbit4427
Epoch Day312.79298885
Epoch Year2018
RAAN24.3883
Inclination97.5122
Eccentricity0.0014407
Argument of Perigee8.3711
Mean Anonmoly111.1539
Mean Motion15.09938989
Decay Rate6.75E-06
L11 43158U 18008D 18312.79298885 .00000675 00000-0 45463-4 0 9993
L22 43158 97.5122 24.3883 0014407 8.3711 111.1539 15.09938989 44272

Live tracking and technical data element details for TianYi 6 (NORAD 43158). TianYi 6 can be tracked NOW for your location showing map with azimuth and elevation plus other details from your city location.

Track the satellite on the map from your city or location and see movement details for azimuth, elevation, latitude, longitude, range, height, and movement on the map or in text.







IsCatalogInMostPopularTable: catalog: 43158, numindb: 123
Update: records affected: 1



GetName: 43158 TianYi 6

Hit Count: updated at: Mon, 12 Nov 2018 17:31:44 GMT